TimeEST,TemperatureF,Dew PointF,Humidity,Sea Level PressureIn,VisibilityMPH,Wind Direction,Wind SpeedMPH,Gust SpeedMPH,PrecipitationIn,Events,Conditions,WindDirDegrees,DateUTC
12:15 AM,26.6,26.6,100,29.53,0.2,East,11.5,18.4,0.01,Snow,Heavy Snow,90,2013-03-06 05:15:00
12:35 AM,26.6,26.6,100,29.53,0.2,East,9.2,17.3,0.02,Snow,Heavy Snow,90,2013-03-06 05:35:00
12:55 AM,26.6,26.6,100,29.55,0.2,East,8.1,-,N/A,Snow,Snow,90,2013-03-06 05:55:00
1:15 AM,26.6,26.6,100,29.56,0.2,East,9.2,-,0.01,Snow,Snow,80,2013-03-06 06:15:00
1:35 AM,26.6,26.6,100,29.56,0.2,ENE,5.8,-,0.01,Snow,Snow,70,2013-03-06 06:35:00
1:55 AM,26.6,26.6,100,29.56,0.2,NE,6.9,-,0.01,Snow,Snow,50,2013-03-06 06:55:00
2:15 AM,-9999,-9999,N/A,29.56,-9999.0,North,-9999.0,-,N/A,,Unknown,0,2013-03-06 07:15:00
2:35 AM,-9999,-9999,N/A,29.55,-9999.0,North,-9999.0,-,N/A,,Unknown,0,2013-03-06 07:35:00
2:55 AM,-9999,-9999,N/A,29.54,-9999.0,North,-9999.0,-,N/A,,Unknown,0,2013-03-06 07:55:00
3:15 AM,-9999,-9999,N/A,29.54,-9999.0,North,-9999.0,-,N/A,,Unknown,0,2013-03-06 08:15:00
3:35 AM,-9999,-9999,N/A,29.54,-9999.0,North,-9999.0,-,N/A,,Unknown,0,2013-03-06 08:35:00
3:55 AM,-9999,-9999,N/A,29.54,-9999.0,North,-9999.0,-,N/A,,Unknown,0,2013-03-06 08:55:00
4:15 AM,-9999,-9999,N/A,29.54,-9999.0,North,-9999.0,-,N/A,,Unknown,0,2013-03-06 09:15:00
4:35 AM,-9999,-9999,N/A,29.54,-9999.0,North,-9999.0,-,N/A,,Unknown,0,2013-03-06 09:35:00
4:55 AM,-9999,-9999,N/A,29.53,-9999.0,North,-9999.0,-,N/A,,Unknown,0,2013-03-06 09:55:00
5:15 AM,-9999,-9999,N/A,29.53,-9999.0,North,-9999.0,-,N/A,,Unknown,0,2013-03-06 10:15:00
5:35 AM,-9999,-9999,N/A,29.54,-9999.0,North,-9999.0,-,N/A,,Unknown,0,2013-03-06 10:35:00
5:55 AM,-9999,-9999,N/A,29.54,-9999.0,North,-9999.0,-,N/A,,Unknown,0,2013-03-06 10:55:00
6:15 AM,-9999,-9999,N/A,29.54,-9999.0,North,-9999.0,-,N/A,,Unknown,0,2013-03-06 11:15:00
6:35 AM,-9999,-9999,N/A,29.55,-9999.0,North,-9999.0,-,N/A,,Unknown,0,2013-03-06 11:35:00
6:55 AM,-9999,-9999,N/A,29.55,-9999.0,North,-9999.0,-,N/A,,Unknown,0,2013-03-06 11:55:00
7:15 AM,-9999,-9999,N/A,29.56,-9999.0,North,-9999.0,-,N/A,,Unknown,0,2013-03-06 12:15:00
7:35 AM,-9999,-9999,N/A,29.57,-9999.0,North,-9999.0,-,N/A,,Unknown,0,2013-03-06 12:35:00
7:55 AM,-9999,-9999,N/A,29.58,-9999.0,North,-9999.0,-,N/A,,Unknown,0,2013-03-06 12:55:00
8:15 AM,-9999,-9999,N/A,29.59,-9999.0,North,-9999.0,-,N/A,,Unknown,0,2013-03-06 13:15:00
8:35 AM,-9999,-9999,N/A,29.61,-9999.0,North,-9999.0,-,N/A,,Unknown,0,2013-03-06 13:35:00
8:55 AM,-9999,-9999,N/A,29.61,-9999.0,North,-9999.0,-,N/A,,Unknown,0,2013-03-06 13:55:00
9:15 AM,-9999,-9999,N/A,29.62,-9999.0,North,-9999.0,-,N/A,,Unknown,0,2013-03-06 14:15:00
9:35 AM,21.2,21.2,100,29.64,2.5,NW,17.3,23.0,0.01,,Unknown,310,2013-03-06 14:35:00
9:55 AM,23.0,21.2,93,29.64,2.0,WNW,17.3,24.2,N/A,,Overcast,300,2013-03-06 14:55:00
10:15 AM,23.0,23.0,100,29.65,1.0,WNW,18.4,25.3,N/A,,Overcast,300,2013-03-06 15:15:00
10:35 AM,23.0,23.0,100,29.66,0.5,NW,16.1,23.0,N/A,,Overcast,310,2013-03-06 15:35:00
10:55 AM,23.0,23.0,100,29.68,1.2,NW,16.1,24.2,N/A,,Overcast,310,2013-03-06 15:55:00
11:15 AM,24.8,24.8,100,29.69,0.8,NW,15.0,21.9,N/A,,Overcast,310,2013-03-06 16:15:00
11:35 AM,24.8,24.8,100,29.70,2.0,NW,16.1,23.0,N/A,,Unknown,310,2013-03-06 16:35:00
11:55 AM,24.8,24.8,100,29.71,4.0,NW,15.0,23.0,N/A,,Overcast,320,2013-03-06 16:55:00
12:15 PM,24.8,24.8,100,29.72,4.0,NW,17.3,25.3,0.01,Snow,Light Snow,310,2013-03-06 17:15:00
12:35 PM,26.6,26.6,100,29.72,4.0,NW,16.1,27.6,0.01,,Overcast,320,2013-03-06 17:35:00
12:55 PM,26.6,26.6,100,29.74,5.0,NW,16.1,21.9,0.01,,Overcast,310,2013-03-06 17:55:00
1:15 PM,26.6,26.6,100,29.74,5.0,WNW,17.3,25.3,0.01,,Overcast,300,2013-03-06 18:15:00
1:35 PM,26.6,26.6,100,29.74,10.0,NW,15.0,24.2,0.01,,Overcast,310,2013-03-06 18:35:00
1:55 PM,26.6,26.6,100,29.74,7.0,WNW,17.3,25.3,N/A,,Overcast,300,2013-03-06 18:55:00
2:15 PM,26.6,26.6,100,29.75,10.0,NW,16.1,-,N/A,,Overcast,310,2013-03-06 19:15:00
2:35 PM,26.6,26.6,100,29.78,10.0,NW,16.1,23.0,N/A,,Overcast,310,2013-03-06 19:35:00
2:55 PM,26.6,26.6,100,29.80,10.0,NW,13.8,20.7,N/A,,Overcast,320,2013-03-06 19:55:00
3:15 PM,26.6,26.6,100,29.81,10.0,WNW,15.0,18.4,N/A,,Overcast,300,2013-03-06 20:15:00
3:35 PM,26.6,24.8,93,29.81,10.0,NW,17.3,23.0,N/A,,Overcast,310,2013-03-06 20:35:00
3:55 PM,26.6,26.6,100,29.83,10.0,NW,16.1,-,N/A,,Overcast,320,2013-03-06 20:55:00
4:15 PM,26.6,24.8,93,29.84,10.0,WNW,16.1,25.3,N/A,,Overcast,300,2013-03-06 21:15:00
4:35 PM,26.6,24.8,93,29.86,5.0,NW,17.3,26.5,N/A,,Overcast,320,2013-03-06 21:35:00
4:55 PM,26.6,24.8,93,29.88,7.0,NW,16.1,25.3,N/A,,Overcast,320,2013-03-06 21:55:00
5:15 PM,24.8,24.8,100,29.89,7.0,NW,15.0,25.3,N/A,,Overcast,320,2013-03-06 22:15:00
5:35 PM,24.8,24.8,100,29.90,4.0,NW,18.4,25.3,N/A,,Overcast,320,2013-03-06 22:35:00
5:55 PM,24.8,24.8,100,29.91,0.2,NW,16.1,23.0,N/A,Fog,Light Freezing Fog,320,2013-03-06 22:55:00
6:15 PM,24.8,24.8,100,29.91,0.2,NW,13.8,24.2,N/A,Fog,Light Freezing Fog,320,2013-03-06 23:15:00
6:35 PM,24.8,24.8,100,29.92,0.2,NW,13.8,21.9,N/A,Fog,Light Freezing Fog,310,2013-03-06 23:35:00
6:55 PM,24.8,24.8,100,29.93,0.2,NW,15.0,25.3,N/A,Snow,Light Snow,320,2013-03-06 23:55:00
7:15 PM,24.8,24.8,100,29.93,0.2,WNW,13.8,-,N/A,Fog,Light Freezing Fog,300,2013-03-07 00:15:00
7:35 PM,24.8,24.8,100,29.93,1.0,NW,15.0,21.9,N/A,Snow,Light Snow,310,2013-03-07 00:35:00
7:55 PM,26.6,26.6,100,29.93,0.5,WNW,11.5,18.4,N/A,Fog,Light Freezing Fog,300,2013-03-07 00:55:00
8:15 PM,26.6,26.6,100,29.94,0.8,WNW,12.7,18.4,N/A,Snow,Light Snow,300,2013-03-07 01:15:00
8:35 PM,26.6,26.6,100,29.95,7.0,NW,11.5,19.6,N/A,,Overcast,310,2013-03-07 01:35:00
8:55 PM,26.6,26.6,100,29.95,10.0,WNW,15.0,20.7,N/A,,Overcast,300,2013-03-07 01:55:00
9:35 PM,26.6,26.6,100,29.96,10.0,NW,12.7,25.3,N/A,,Overcast,320,2013-03-07 02:35:00
9:55 PM,26.6,26.6,100,29.97,10.0,NW,16.1,21.9,N/A,,Overcast,310,2013-03-07 02:55:00
10:15 PM,26.6,26.6,100,29.97,7.0,NW,17.3,25.3,N/A,,Overcast,310,2013-03-07 03:15:00
10:35 PM,26.6,26.6,100,29.98,5.0,NW,16.1,25.3,N/A,,Overcast,310,2013-03-07 03:35:00
10:55 PM,26.6,26.6,100,29.98,1.5,WNW,15.0,24.2,N/A,,Overcast,300,2013-03-07 03:55:00
11:15 PM,26.6,26.6,100,29.98,5.0,WNW,13.8,21.9,N/A,,Overcast,300,2013-03-07 04:15:00
11:35 PM,24.8,24.8,100,29.97,7.0,NW,16.1,26.5,N/A,,Overcast,310,2013-03-07 04:35:00
11:55 PM,24.8,24.8,100,29.97,7.0,NW,17.3,23.0,N/A,,Overcast,310,2013-03-07 04:55:00